Regional Weather Roundup
Issued by NWS Charleston, WV

Home | Current Version | Previous Version | Graphics & Text | Print | Product List | Glossary On
Versions: 1 2 3 4 5 6 7 8 9 10 11 12 13 14 15 16 17 18 19 20 21 22 23 24 25 26 27 28 29 30 31 32 33 34 35 36 37 38 39 40 41 42 43 44 45 46 47 48 49 50
000
ASUS41 KRLX 270910
RWRRLX
West Virginia Regional Weather Roundup
National Weather Service Charleston WV
500 AM EDT SUN MAY 27 2018

Note: "fair" indicates few or no clouds below 12,000 feet with no
significant weather and/or obstructions to visibility.

WVZ003-271000-
Northern Panhandle of West Virginia

CITY           SKY/WX    TMP DP  RH WIND       PRES   REMARKS
WHEELING       MOCLDY    67  64  90 SE7       29.90R
$$

WVZ009-271000-
Northwest West Virginia

CITY           SKY/WX    TMP DP  RH WIND       PRES   REMARKS
PARKERSBURG    MOCLDY    67  66  97 CALM      29.91R FOG
$$

WVZ006-271000-
Western West Virginia

CITY           SKY/WX    TMP DP  RH WIND       PRES   REMARKS
HUNTINGTON     FAIR      70  66  87 S6        29.90R
$$

WVZ015-271000-
West Central West Virginia

CITY           SKY/WX    TMP DP  RH WIND       PRES   REMARKS
CHARLESTON     FAIR      66  66 100 CALM      29.91R FOG
$$

WVZ022-031-271000-
North Central West Virginia

CITY           SKY/WX    TMP DP  RH WIND       PRES   REMARKS
CLARKSBURG     MOCLDY    69  66  90 CALM      29.92R
MORGANTOWN     CLOUDY    67  66  97 CALM      29.93S
$$

WVZ025-035-042-045-271000-
Southern West Virginia

CITY           SKY/WX    TMP DP  RH WIND       PRES   REMARKS
BECKLEY        FAIR      66  62  87 SW7       30.00R
LOGAN          FAIR      68  66  94 CALM      29.95S
BLUEFIELD      MOCLDY    64  64 100 W7        30.02S
LEWISBURG      FOG       63  63  99 CALM      30.00R VSB 1/2
$$

WVZ047-271000-
Northern Mountains of West Virginia

CITY           SKY/WX    TMP DP  RH WIND       PRES   REMARKS
ELKINS         CLOUDY    66  64  93 CALM      29.97S
$$

WVZ052-271000-
Eastern Panhandle of West Virginia

CITY           SKY/WX    TMP DP  RH WIND       PRES   REMARKS
MARTINSBURG    LGT RAIN  70  68  93 CALM      29.89R
PETERSBURG     CLOUDY    66  66  99 CALM      29.92R FOG
$$



USA.gov is the U.S. government's official web portal to all federal, state and local government web resources and services.